Vertical_Velocity
-1 -2 -1 -1 -1 -1 -1 -1 -1 -1 -1 -2 -1 -2 -2 -1 0 1 -2 -3 0 0 -1 -0 2 3 3 4 30 57 7 -13 1 -9 7 2 1 -3 -11 5 -2 0 -3 4 -1
-1 -1 -1 -0 -1 -1 -1 -1 -1 -1 -0 -0 -1 -1 -4 -1 1 -1 -0 -2 -1 -1 4 1 -0 3 5 -5 -8 -9 -20 -15 3 -2 10 4 -2 -2 -1 -2 -1 -1 6 3 -4
0 0 0 -1 -1 -2 -2 -2 -1 -1 -0 1 0 -0 -2 -4 2 -1 -0 0 -3 -1 -0 1 -2 0 2 -2 -2 20 -8 -3 10 15 5 -1 -1 -1 -8 -4 3 -2 -3 1 5
-0 -0 0 -1 -0 0 -1 -2 -2 -2 -2 -1 -0 1 -1 -3 3 -6 0 -1 -2 -1 -0 1 -1 1 1 -8 0 6 9 20 16 3 -2 -10 6 4 -4 -5 0 -0 0 -1 0
-0 -0 -0 -0 0 -1 -0 -1 -2 -1 -0 -1 -2 -1 0 -1 1 -5 1 -1 -1 -2 2 3 1 -3 3 -7 -4 0 5 7 3 1 15 -1 -3 -2 -8 -4 -3 -4 -4 3 5
-1 -0 -0 -1 -1 -1 -1 0 -1 -2 -1 0 -1 -1 -1 -2 2 -3 1 -1 -1 -1 -2 -1 6 3 -2 -6 -6 -7 -3 4 -1 1 -14 8 -1 -2 -2 -1 0 -2 0 -1 -3
1 1 2 -0 -0 -1 -2 -3 -0 -0 -3 -1 1 1 -0 -5 0 1 2 1 -2 -0 -0 -1 1 -2 -2 2 -4 -10 -3 7 4 -0 -9 19 1 -10 -3 -2 3 0 0 0 0
-2 -2 -1 -0 -1 -0 -0 -1 -3 -3 -2 -1 -1 2 -4 -2 -0 2 -2 4 2 -0 -0 -2 -4 3 1 6 -4 -7 -7 -0 9 13 -6 2 -11 6 -3 -4 -0 -0 -0 0 0
-2 -1 -1 -1 -1 -1 -1 -1 -1 -2 -2 -1 1 1 -7 1 -4 -0 -0 -0 3 0 1 -0 -3 2 -3 1 2 -1 -3 -3 4 -6 32 -5 -4 3 -1 -4 -4 -3 -0 1 -1
-1 -1 -1 -1 1 1 -1 -2 -4 -1 -1 -2 2 -1 3 -7 2 -4 -4 -2 -0 -3 -1 -0 -3 -2 -4 -7 -2 5 5 -3 1 -1 5 -5 -3 3 1 -2 -1 -3 -0 -1 -2
-1 -0 -0 0 -1 0 -5 -1 -0 -4 -0 -5 3 0 7 -2 2 -5 -1 1 -3 1 1 1 -7 -0 8 1 9 9 7 -3 10 3 -5 -5 -4 3 1 -2 -6 -1 1 0 -1
-1 1 -1 -5 2 0 -2 -5 -3 -11 10 -4 -4 8 -5 -6 1 0 -3 -3 -3 0 -4 -10 -1 9 4 1 4 4 6 -12 15 4 10 -5 -1 1 13 3 -1 3 -8 2 0
-1 0 5 -4 1 -4 -3 2 -3 -7 -16 16 -5 8 -6 -4 3 1 -2 2 0 -4 -1 -3 16 3 -1 1 -4 1 -1 2 -3 2 -5 -4 -7 -14 -1 5 5 2 -8 1 2
-0 -1 1 1 3 -5 -6 1 -10 -3 -18 42 5 8 8 -5 7 -4 4 -2 -1 -0 1 -7 -5 -2 -3 -1 2 -7 10 13 -12 12 -6 11 5 -11 -1 -1 -2 -2 -4 0 1
-1 1 4 6 -11 -10 2 3 -6 -2 -35 -2 -4 18 -2 -5 -2 6 -8 -3 1 3 -10 21 -2 -4 -5 11 0 10 5 5 5 22 -1 9 -4 -3 4 -10 -5 -8 3 -2 -2
-1 -3 8 -7 8 -10 3 1 -7 -11 -15 9 -17 6 9 1 8 0 -3 -7 4 -7 -4 -1 -1 -5 3 5 -3 16 0 2 2 10 7 9 -3 2 -13 -17 2 -1 -11 8 3
-1 -2 -6 11 -23 12 -4 -0 -10 -32 7 20 -10 -12 -5 12 3 -11 5 -7 -0 -2 2 12 -0 6 -5 -8 -4 -8 -1 -3 -11 -9 -7 4 -2 -8 14 5 -13 0 -5 3 -9
8 -4 10 4 4 -6 -3 -7 -26 5 20 32 -4 -12 -8 1 18 8 -13 3 -2 -4 3 -2 -11 -3 11 -0 10 6 6 -4 -4 -6 -1 4 -18 -19 5 8 6 -11 3 -4 -2
9 -9 25 -4 5 -2 -3 -24 4 30 21 -17 -12 -11 1 -0 1 4 -0 -8 10 2 -2 -3 -3 0 -8 5 -1 1 -21 29 7 4 -8 15 -1 -3 2 -2 -0 8 -8 5 -6
10 -3 33 -7 3 -2 -13 6 -1 -5 12 6 9 -12 -3 5 -28 -11 10 15 2 6 -0 13 -11 -2 8 -1 -1 -6 7 1 1 -14 -3 -7 -4 -9 12 3 1 -4 6 7 1
5 -9 24 -5 -9 -11 -8 1 -3 4 -4 -8 6 18 3 17 -6 -13 -16 11 9 -1 6 15 0 9 -3 -6 2 -4 -3 -10 -6 -12 4 -6 -11 -4 9 4 9 -7 -0 -2 -17
-2 -9 -7 -3 -10 -2 -2 12 3 10 8 7 14 -1 -1 6 -0 -11 -3 -1 3 4 -12 10 16 -12 7 -4 2 1 4 5 -8 8 -11 -14 -39 9 30 12 7 -0 10 13 -11
-9 -7 11 -18 5 2 7 5 1 8 3 5 -9 -15 12 12 -12 5 -9 29 2 -20 -0 6 -20 -4 2 -2 0 -12 4 3 11 -2 -18 -11 4 12 1 4 4 8 10 -1 3
-1 5 8 -7 5 -4 -10 9 -6 9 8 9 5 2 17 4 -10 5 6 13 17 -13 -1 38 -0 -10 -14 39 8 -11 -1 0 -6 -27 38 -47 33 -7 11 11 15 8 -19 -0 -3
-4 6 4 9 5 5 6 -3 2 1 9 -18 23 17 -1 -8 -2 17 -7 -4 -10 17 -9 -27 -22 -0 12 8 1 15 -6 -4 -21 29 -33 30 -27 -11 10 11 6 -4 28 -7 3
-6 -5 6 7 5 -3 17 19 10 -5 10 8 -6 17 12 -6 -10 -2 5 5 -4 14 13 25 -12 3 -5 2 -2 6 -6 -1 -1 1 -3 -9 1 18 11 5 22 14 1 -2 4
2 4 -4 13 5 1 16 2 1 -4 5 10 -1 6 5 7 -2 12 0 14 23 13 16 2 13 0 -11 14 11 -57 15 -4 4 5 2 -22 18 -1 -5 9 -12 30 69 -13 -2
Height
5894 5892 5891 5890 5889 5889 5887 5886 5884 5883 5883 5882 5882 5883 5884 5885 5886 5886 5886 5886 5887 5889 5891 5891 5892 5894 5895 5891 5891 5885 5882 5886 5893 5900 5900 5898 5899 5898 5895 5900 5899 5904 5903 5906 5904
5893 5891 5890 5888 5887 5886 5886 5885 5884 5882 5881 5880 5880 5880 5881 5883 5885 5885 5885 5885 5886 5887 5890 5891 5891 5893 5896 5891 5890 5895 5890 5888 5896 5902 5901 5898 5898 5898 5896 5897 5899 5901 5904 5905 5903
5892 5891 5889 5887 5886 5885 5884 5883 5882 5882 5880 5879 5878 5878 5878 5880 5883 5883 5883 5883 5884 5886 5888 5889 5890 5890 5893 5892 5896 5892 5895 5899 5899 5902 5901 5898 5899 5898 5897 5898 5901 5899 5901 5902 5905
5890 5889 5888 5887 5885 5884 5883 5881 5880 5880 5880 5879 5877 5877 5877 5878 5880 5879 5881 5882 5882 5883 5886 5889 5890 5889 5891 5891 5895 5900 5903 5904 5900 5899 5897 5898 5902 5901 5899 5897 5899 5899 5900 5901 5903
5888 5887 5886 5885 5884 5882 5881 5880 5879 5878 5878 5877 5876 5876 5875 5876 5876 5876 5878 5879 5880 5883 5884 5887 5889 5890 5891 5889 5895 5900 5902 5903 5904 5902 5897 5902 5902 5901 5897 5899 5899 5898 5897 5900 5904
5886 5885 5884 5883 5882 5881 5880 5879 5878 5877 5876 5875 5875 5874 5874 5874 5874 5871 5874 5876 5878 5880 5882 5884 5889 5890 5890 5887 5891 5896 5898 5903 5904 5906 5904 5903 5904 5902 5900 5900 5901 5900 5899 5899 5902
5881 5881 5881 5880 5879 5878 5878 5876 5875 5875 5874 5874 5873 5872 5872 5872 5871 5870 5870 5873 5875 5878 5879 5883 5885 5886 5887 5889 5888 5892 5896 5901 5904 5908 5904 5900 5904 5901 5900 5901 5903 5903 5902 5901 5902
5876 5875 5876 5875 5875 5874 5874 5873 5872 5871 5871 5871 5871 5871 5869 5870 5870 5869 5869 5869 5871 5873 5876 5878 5880 5884 5886 5889 5888 5888 5892 5895 5899 5908 5903 5905 5903 5906 5903 5901 5902 5904 5904 5904 5903
5870 5870 5869 5869 5869 5869 5868 5868 5867 5867 5867 5866 5868 5868 5868 5869 5868 5867 5866 5866 5868 5869 5870 5873 5875 5879 5882 5885 5888 5889 5892 5896 5901 5901 5904 5903 5905 5906 5905 5902 5901 5903 5903 5905 5905
5865 5863 5863 5863 5863 5863 5862 5862 5862 5862 5862 5861 5863 5865 5866 5865 5865 5864 5863 5864 5864 5866 5867 5869 5871 5873 5876 5879 5884 5891 5894 5895 5897 5901 5901 5901 5905 5904 5903 5903 5903 5903 5903 5905 5906
5860 5858 5858 5857 5858 5857 5856 5856 5858 5857 5857 5856 5858 5859 5860 5860 5860 5861 5861 5861 5862 5862 5864 5865 5866 5870 5874 5878 5886 5890 5892 5893 5899 5898 5898 5900 5900 5902 5900 5901 5903 5904 5904 5906 5907
5852 5852 5851 5848 5851 5850 5849 5849 5849 5849 5851 5851 5850 5854 5851 5853 5855 5856 5857 5858 5858 5859 5859 5860 5861 5868 5871 5873 5878 5884 5888 5889 5890 5894 5898 5896 5899 5900 5901 5902 5904 5905 5903 5906 5908
5843 5843 5843 5840 5840 5841 5840 5842 5841 5839 5841 5848 5844 5846 5846 5846 5849 5851 5851 5853 5855 5856 5856 5857 5861 5862 5864 5866 5871 5877 5883 5886 5884 5886 5888 5889 5892 5893 5898 5901 5903 5903 5902 5905 5908
5831 5831 5832 5833 5830 5831 5830 5834 5829 5832 5829 5842 5835 5838 5840 5840 5843 5843 5846 5847 5848 5853 5852 5853 5855 5856 5856 5860 5865 5870 5880 5884 5879 5882 5881 5886 5888 5887 5893 5895 5897 5899 5900 5904 5907
5819 5819 5819 5820 5820 5818 5821 5824 5824 5823 5817 5828 5828 5831 5832 5834 5837 5837 5836 5838 5842 5844 5845 5852 5850 5852 5852 5856 5859 5869 5874 5878 5879 5881 5878 5883 5876 5883 5889 5889 5891 5894 5898 5902 5905
5805 5805 5806 5804 5807 5805 5807 5810 5811 5813 5804 5813 5813 5821 5825 5826 5828 5827 5828 5831 5834 5834 5835 5844 5845 5845 5849 5851 5854 5865 5865 5870 5873 5877 5873 5879 5875 5880 5881 5882 5885 5890 5895 5902 5903
5789 5789 5789 5791 5789 5793 5792 5793 5797 5796 5799 5804 5804 5805 5811 5816 5817 5817 5820 5820 5825 5827 5829 5837 5837 5840 5843 5845 5847 5853 5857 5859 5862 5862 5862 5871 5874 5879 5886 5884 5885 5890 5892 5895 5896
5771 5771 5772 5769 5772 5772 5775 5777 5778 5782 5787 5791 5786 5791 5793 5800 5805 5807 5807 5811 5814 5816 5821 5824 5827 5833 5839 5838 5841 5844 5848 5849 5850 5854 5860 5867 5860 5868 5881 5885 5885 5882 5888 5887 5894
5750 5749 5749 5748 5748 5750 5753 5755 5761 5767 5767 5766 5769 5774 5779 5781 5788 5791 5794 5798 5806 5808 5810 5816 5819 5828 5828 5832 5835 5836 5834 5848 5847 5852 5853 5857 5862 5869 5874 5876 5879 5881 5881 5886 5887
5723 5724 5722 5719 5720 5723 5727 5736 5740 5741 5744 5747 5750 5758 5762 5763 5763 5773 5781 5788 5791 5798 5801 5805 5807 5814 5821 5823 5824 5825 5834 5837 5837 5839 5840 5848 5855 5862 5869 5870 5873 5877 5881 5882 5885
5689 5690 5689 5685 5688 5693 5701 5707 5712 5715 5718 5719 5727 5736 5743 5746 5746 5750 5761 5774 5780 5782 5790 5795 5796 5804 5808 5808 5815 5819 5820 5825 5831 5833 5833 5840 5842 5856 5864 5866 5868 5873 5875 5873 5873
5652 5655 5651 5647 5655 5659 5667 5674 5680 5685 5689 5695 5699 5707 5716 5723 5727 5734 5744 5753 5767 5774 5774 5782 5787 5787 5792 5798 5804 5809 5814 5819 5817 5824 5828 5832 5833 5853 5861 5859 5862 5868 5868 5869 5867
5611 5614 5615 5611 5618 5626 5633 5641 5647 5654 5657 5661 5667 5676 5689 5702 5708 5714 5723 5738 5743 5746 5762 5770 5768 5774 5781 5785 5787 5792 5802 5807 5814 5819 5814 5820 5822 5845 5848 5852 5855 5859 5860 5859 5859
5575 5581 5585 5582 5587 5589 5594 5602 5608 5616 5622 5624 5641 5646 5652 5667 5681 5695 5703 5716 5727 5735 5739 5756 5752 5751 5759 5774 5782 5783 5789 5796 5802 5802 5808 5806 5820 5831 5840 5844 5849 5847 5848 5851 5850
5553 5559 5560 5569 5572 5574 5578 5581 5586 5593 5599 5597 5615 5618 5622 5634 5648 5666 5678 5691 5703 5714 5718 5725 5725 5737 5747 5759 5770 5775 5780 5785 5787 5795 5797 5806 5811 5818 5832 5836 5842 5845 5847 5846 5848
5545 5546 5550 5557 5558 5562 5568 5573 5565 5575 5574 5583 5585 5596 5603 5611 5620 5639 5655 5673 5684 5693 5702 5710 5714 5726 5733 5742 5752 5762 5768 5774 5779 5785 5788 5795 5798 5811 5821 5827 5834 5836 5836 5839 5842
5543 5542 5542 5545 5548 5552 5556 5556 5557 5554 5562 5568 5570 5577 5585 5590 5599 5618 5633 5654 5669 5683 5691 5698 5705 5714 5718 5730 5739 5744 5748 5762 5770 5777 5781 5781 5793 5802 5806 5818 5821 5828 5827 5831 5835